Flag for China Weather past 2 weeks in Shenzhen, Guangdong, China

Now
81 °F

Clear.


Feels Like: 86 °F
Forecast: 78 / 90 °F
Wind: 3 mph from East

Location: Shenzhen Airport

Current Time: Aug 1, 2015 at 6:06:18 AM

Latest Report: Aug 1, 2015 at 5:00 AM


Visibility: 10 mi

Pressure: 29.83 "Hg

Humidity: 84%

Dew point: 75 °F

Location of ShenzhenLocation

Historic Weather in Shenzhen — Graph

°F

Shenzhen temperature yesterday

Maximum temperature yesterday: 86 °F (at 10:00 AM)
Minimum temperature yesterday: 79 °F (at 3:00 AM)
Average temperature yesterday: 83 °F

Past Weeks' High & Low Weather Summary

 TemperatureHumidityPressure
High95 °F (Jul 19, 1:00 PM)94% (Jul 17, 6:00 AM)29.92 "Hg (Jul 17, 6:00 AM)
Low77 °F (Jul 17, 7:00 AM)47% (Jul 19, 2:00 PM)29.50 "Hg (Jul 19, 3:00 PM)
Average84 °F81%29.73 "Hg
* Reported Jul 17 5:00 AM — Aug 1 5:00 AM, Shenzhen, Weather by CustomWeather, © 2015

Note: Actual official high and low records may vary slightly from our data, if they occured in-between our weather recording intervals... More about our weather records

Advertising

Shenzhen weather history for previous 24 hours

 ConditionsComfort  
Time TempWeatherWind HumidityBarometerVisibility
5:00 AM
Sat, Aug 1
81 °FClear.3 mph84%29.83 "Hg10 mi
4:00 AM81 °FClear.3 mph84%29.83 "Hg10 mi
3:00 AM82 °FClear.3 mph79%29.83 "Hg10 mi
2:00 AM81 °FClear.3 mph84%29.83 "Hg10 mi
1:00 AM82 °FClear.3 mph84%29.86 "Hg10 mi
12:00 AM82 °FPassing clouds.6 mph79%29.86 "HgN/A
11:00 PM
Fri, Jul 31
82 °FClear.6 mph84%29.86 "Hg10 mi
10:00 PM82 °FClear.8 mph84%29.86 "Hg10 mi
9:00 PM84 °FClear.10 mph79%29.83 "Hg10 mi
8:00 PM84 °FClear.13 mph79%29.83 "Hg10 mi
7:00 PM84 °FSunny.13 mph79%29.80 "Hg10 mi
6:00 PM84 °FSunny.13 mph79%29.80 "Hg10 mi
5:00 PM86 °FSunny.13 mph75%29.80 "Hg10 mi
4:00 PM86 °FPassing clouds.13 mph75%29.80 "HgN/A
3:00 PM86 °FPassing clouds.10 mph70%29.83 "HgN/A
2:00 PM86 °FPassing clouds.13 mph70%29.83 "HgN/A
1:00 PM86 °FPassing clouds.10 mph70%29.86 "HgN/A
12:00 PM86 °FPassing clouds.10 mph70%29.86 "HgN/A
11:00 AM86 °FPassing clouds.8 mph70%29.86 "HgN/A
10:00 AM86 °FPassing clouds.8 mph70%29.86 "HgN/A
9:00 AM84 °FScattered clouds.6 mph74%29.89 "HgN/A
8:00 AM84 °FPassing clouds.1 mph74%29.86 "HgN/A
7:00 AM82 °FPassing clouds.3 mph79%29.86 "HgN/A
6:00 AM79 °FPassing clouds.3 mph84%29.83 "HgN/A
Weather by CustomWeather, © 2015

See weather overviewHow to use our weather pages